Showing default

UPPER FREE FLYER, 43763

Orbit data source: Space-Track

UPPER FREE FLYER, 43763 is a payload satellite owned by Spaceflight Ind (US) in SSO that was launched on Mon, 03 Dec 2018 UTC via an FALCON 9 launch vehicle from the Air Force Western Test Range (AFWTR). Payload-class satellites include a variety of spacecraft equipped with specific instruments for various scientific and technological missions. These include communications satellites like Starlink; space stations such as the ISS; scientific satellites like the Hubble; Earth observation satellites from companies like Planet Labs, Umbra, and HawkEye 360; GPS; miniature CubeSats for education and research; and military/defense satellites.

Loading next visibility...
Identifier
43763, 2018-099F
Orbit
SSO
Country
Flag of USUS
Related business
Manufacturer
Spaceflight Ind
Mission
Commercial Technology
Bus & Motor
SFL-UFF, Unknown motor
Mass
2,271 kg wet, 1,072 kg dry
Launch date (UTC)
2018-12-03 (8 years ago)
Launch vehicle
FALCON 9
Launch site
Air Force Western Test Range (AFWTR)
Object type
Payload
Rocket body
Debris
Shape & HBR
Cyl + 1 Sail, 2.0 m
Radar Cross Section
6.440 m², Large (>1 m²)

Expand to show TLE details & history
Last TLE update: 13 hours ago

TLE from 13 hours ago
0 UPPER FREE FLYER
1 43763U 18099F   26219.85949534  .00001811  00000-0  10941-3 0  9996
2 43763  97.4326 267.5534 0014337 123.1353 237.1255 15.11848032420356
Epoch: 2026-08-07T20:37Z
TLE epoch observation values (Epoch: 2026-08-07T20:37:40.397Z)
Latitude
-0.00007°
Longitude
1.75594°
Altitude
539.03 km
Speed
7.59 km/s
True Right ascension
17h 50m 12s
True Declination
0° 00' 00"
Sunlit
Object was in full shadow at epoch
Visualization orbit readout
Latitude
Unknown
Longitude
Unknown
Altitude
Unknown
Speed
Unknown
Apparent Right ascension
Unknown
Apparent Declination
Unknown
Sunlit
N/A
Visualization observer readout
Local Sidereal Time
23:46:04
Azimuth
Unknown
Elevation
Unknown
Doppler factor
Unknown
Orbital elements
Apogee altitude
537.443 km
Perigee altitude
517.641 km
Semi-major axis
6,905.679 km
Eccentricity
0.00143
Inclination
97.4326°
RAAN
267.5534°
Arg. of periapsis
123.1353°
True anomaly
236.98765°
Mean anomaly
237.1255°
Eccentric anomaly
237.05656°
Mean motion
3.7821 °/min
Orbital period
95.19 mins
BSTAR
0.00010941
Loading maneuver chart data...
Computing Atmospheric mass density...
Loading historical data...
Loading historical data...
Loading historical data...
Loading historical data...
Loading historical data...
Loading historical data...
Loading historical data...

Documentation

Showing up to 5 results
|